{"data":{"norad_id":57743,"intl_designator":"2023-131M","name":"STARLINK-30361","alt_names":[],"object_type":"PAYLOAD","status":"ACTIVE","operator":null,"country":"US","launch_date":"2023-09-01","launch_site_code":"AFETR","launch_vehicle":null,"mission":null,"orbit_class":"UNKNOWN","rcs_meters":null,"size_class":null,"mass_kg":null,"dimensions":null,"purposes":["comms"],"wikipedia_slug":null,"has_3d_model":false,"image_url":null,"decayed_at":null,"tle_current":{"epoch":"2026-05-25T03:51:24.529248Z","epoch_age_seconds":67892,"freshness":"FRESH","line1":"1 57743U 23131M   26145.16070057  .00010854  00000+0  40305-3 0  9992","line2":"2 57743  42.9995 100.4207 0001409 269.6983  90.3707 15.27607182151605","mean_motion":15.27607182,"eccentricity":0.0001409,"inclination_deg":42.9995,"raan_deg":100.4207,"arg_perigee_deg":269.6983,"mean_anomaly_deg":90.3707,"bstar":0.00040305,"rev_number":15160,"period_min":94.265071346071,"perigee_km":482.00097490702,"apogee_km":483.93443421276,"semimajor_km":6861.1047045599,"source":"CELESTRAK","updated_at":"2026-05-25T13:38:18.400879Z"}}}